COSMOS 249 DEB, 18549

Orbit data source: Space-Track

COSMOS 249 DEB, 18549 is space debris in LEO originally from a launch on Sun, 20 Oct 1968 UTC launched from the Tyuratam Missile And Space Complex (TTMTR). Debris objects in space refer to the collection of defunct objects orbiting the Earth. Examples of debris include non-operational satellites, rocket bodies, and fragments generated from explosions, collisions, or faulty payload assembly.

Loading next visibility...
Identifier
18549, 1968-091DE
Orbit
LEO
Country
Flag of CISCIS
Related business
Manufacturer
Unknown
Mission
Spacecraft
Bus & Motor
Unknown
Mass
Unknown
Launch date (UTC)
1968-10-20 (57 years ago)
Launch vehicle
Unknown
Launch site
Tyuratam Missile And Space Complex (TTMTR)
Object type
Payload
Rocket body
Debris
Shape & HBR
Unknown shape, 0.1 m
Radar Cross Section
Small (<0.1 m²)

Expand to show TLE details & history
Last TLE update: 22 hours ago

TLE from 22 hours ago
0 COSMOS 249 DEB
1 18549U 68091DE  25291.66282817  .00005623  00000-0  66213-2 0  9996
2 18549  62.2263  22.6938 0655430 221.9264 294.1228 13.01854327598014
Epoch: 2025-10-18T15:54Z
TLE epoch observation values (Epoch: 2025-10-18T15:54:28.353Z)
Latitude
27.19113°
Longitude
-78.92955°
Altitude
1,080.824 km
Speed
7.398 km/s
True Right ascension
12h 28m 19s
True Declination
27° 03' 28"
Sunlit
Object was in daylight at epoch
Visualization orbit readout
Latitude
Unknown
Longitude
Unknown
Altitude
Unknown
Speed
Unknown
Apparent Right ascension
Unknown
Apparent Declination
Unknown
Sunlit
N/A
Visualization observer readout
Local Sidereal Time
09:05:55
Azimuth
Unknown
Elevation
Unknown
Doppler factor
Unknown
Orbital elements
Apogee altitude
1,754.048 km
Perigee altitude
753.604 km
Semi-major axis
7,631.963 km
Eccentricity
0.06554
Inclination
62.2263°
RAAN
22.6938°
Arg. of periapsis
221.9264°
True anomaly
287.04897°
Mean anomaly
294.1228°
Eccentric anomaly
290.60776°
Mean motion
3.25528 °/min
Orbital period
110.59 mins
BSTAR
0.0066213
Loading maneuver chart data...
Computing Atmospheric mass density...
Loading historical data...
Loading historical data...
Loading historical data...
Loading historical data...
Loading historical data...
Loading historical data...
Loading historical data...

Documentation

Showing up to 5 results
|